Regional Weather Roundup
Issued by NWS Midland/Odessa, TX

Skip options and go directly to product.
Home | Oldest Version | Previous Version | Current Version | All | Text Only | Save Text | Print | Product List | Glossary On

Skip product version selection by date and time.   
467
ASUS44 KMAF 191910
RWRMAF
MIDLAND AREA WEATHER ROUNDUP
NATIONAL WEATHER SERVICE MIDLAND TX
200 PM CDT FRI SEP 19 2014

...IN SOUTHWEST TEXAS AND SOUTHEAST NEW MEXICO...

CITY           SKY/WX    TMP DP  RH WIND       PRES   REMARKS
ALPINE         PTSUNNY   80  63  54 CALM      30.08F
ANDREWS        CLOUDY    69  68  96 SE10G18   29.99F
ARTESIA        NOT AVBL
BIG SPRING     CLOUDY    74  70  88 E7        30.02F
CARLSBAD       CLOUDY    75  75 100 SE8       29.95F
DRYDEN           N/A     87  69  54 E6        29.90F
FORT STOCKTON  CLOUDY    78  71  79 E6        29.96F
GUAD PASS      CLOUDY    73  65  75 W16G23    30.16F
HOBBS          RAIN      66  66 100 E10       30.02F
MARFA          MOSUNNY   77  63  61 CALM      30.07F
MIDLAND AIRPK  NOT AVBL
MIDLAND INTL   CLOUDY    71  69  93 E10       29.97F
ODESSA         LGT RAIN  70  68  93 E12       29.98F
PECOS          CLOUDY    76  70  80 E10       29.93F
PRESIDIO       FAIR      87  63  44 CALM      29.91F
SEMINOLE       CLOUDY    70  67  90 SE9       30.01F
SNYDER         CLOUDY    75  69  79 E9        30.00F
WINK           NOT AVBL
$$
...OTHER STATIONS IN TEXAS...

CITY           SKY/WX    TMP DP  RH WIND       PRES   REMARKS
ABILENE        CLOUDY    79  67  66 S7        29.98F
AMARILLO       CLOUDY    75  63  66 S14       30.05F
AUSTIN         CLOUDY    79  73  82 S6        29.90F
BROWNSVILLE    MOSUNNY   92  76  59 S9        29.81F HX 104
CORPUS CHRISTI CLOUDY    84  77  79 E15       29.84S
DALLAS FTW     PTSUNNY   83  69  62 VRB5      29.95F
DEL RIO        MOSUNNY   88  73  61 E9        29.84F
EL PASO        PTSUNNY   78  63  59 SW8       29.99F
HOUSTON INT    PTSUNNY   82  74  76 E9        29.91S
LUBBOCK        CLOUDY    71  66  84 SE14      30.04S
SAN ANGELO     CLOUDY    77  70  79 E8        29.96F
SAN ANTONIO    CLOUDY    86  72  62 N10       29.90F
WACO           MOSUNNY   84  70  62 E6        29.93F
WICHITA FALLS  NOT AVBL
$$
...OTHER LOCATIONS IN NEW MEXICO...

CITY           SKY/WX    TMP DP  RH WIND       PRES   REMARKS
ALAMAGORDO     MOSUNNY   73  66  78 SE7       30.02F
ALBUQUERQUE    MOSUNNY   78  53  41 SE6       30.07F
CANNON AFB     PTSUNNY   71  69  95 SE13G21   30.05F
CLOVIS           N/A     70  64  83 SE10      30.08F
HOLLOMAN AFB   PTSUNNY   74  65  73 CALM      29.99F
ROSWELL        LGT RAIN  69  67  93 SE8       29.99F FOG
RUIDOSO        PTSUNNY   66  59  77 E6        30.16F
SANTA FE       SUNNY     78  47  33 NE6       30.12F
TRUTH OR CONSE MOSUNNY   77  60  55 VRB6      30.04F
TUCUMCARI      CLOUDY    77  60  55 VRB5      30.02F
$$

USA.gov is the U.S. government's official web portal to all federal, state and local government web resources and services.